• In Russia
  • List of Countries
  • For 7 days
  • Water Temperature
  • Weather Map
  • Weather Widgets
  • user-avatar
    Login

    Hourly Weather Laszkar Gah

    Today, 29 January, Wednesday

    Time Temperature Precipitation Wind Pressure Humidity
    00:00 +5°C° 0 mm 3 mps 695 mmHg 61%
    01:00 +5°C° 0 mm 2 mps 695 mmHg 61%
    02:00 +5°C° 0 mm 2 mps 695 mmHg 63%
    03:00 +4°C° 0 mm 2 mps 695 mmHg 65%
    04:00 +5°C° 0 mm 1 mps 694 mmHg 67%
    05:00 +5°C° 0 mm 1 mps 695 mmHg 68%
    06:00 +4°C° 0 mm 1 mps 695 mmHg 68%
    07:00 +4°C° 0 mm 1 mps 696 mmHg 69%
    08:00 +5°C° 0 mm 1 mps 696 mmHg 64%
    09:00 +6°C° 0 mm 1 mps 697 mmHg 59%
    10:00 +7°C° 0 mm 1 mps 698 mmHg 54%
    11:00 +8°C° 0 mm 1 mps 697 mmHg 51%
    12:00 +9°C° 0 mm 1 mps 697 mmHg 47%
    13:00 +10°C° 0 mm 1 mps 697 mmHg 44%
    14:00 +10°C° 0 mm 1 mps 696 mmHg 42%
    15:00 +11°C° 0 mm 1 mps 696 mmHg 41%
    16:00 +11°C° 0 mm 1 mps 696 mmHg 40%
    17:00 +10°C° 0 mm 1 mps 697 mmHg 43%
    18:00 +10°C° 0 mm 1 mps 697 mmHg 46%
    19:00 +9°C° 0 mm 1 mps 698 mmHg 50%
    20:00 +8°C° 0 mm 2 mps 698 mmHg 49%
    21:00 +7°C° 0 mm 3 mps 698 mmHg 48%
    22:00 +6°C° 0 mm 4 mps 698 mmHg 48%
    23:00 +5°C° 0 mm 4 mps 698 mmHg 48%

    Tomorrow, 30 January, Thursday

    Time Temperature Precipitation Wind Pressure Humidity
    00:00 +5°C° 0 mm 4 mps 697 mmHg 49%
    01:00 +4°C° 0 mm 4 mps 697 mmHg 50%
    02:00 +3°C° 0 mm 5 mps 697 mmHg 49%
    03:00 +3°C° 0 mm 5 mps 696 mmHg 48%
    04:00 +2°C° 0 mm 5 mps 696 mmHg 47%
    05:00 +2°C° 0 mm 5 mps 696 mmHg 46%
    06:00 +1°C° 0 mm 5 mps 696 mmHg 46%
    07:00 +1°C° 0 mm 5 mps 696 mmHg 46%
    08:00 +2°C° 0 mm 5 mps 697 mmHg 41%
    09:00 +5°C° 0 mm 5 mps 697 mmHg 36%
    10:00 +5°C° 0 mm 6 mps 697 mmHg 31%
    11:00 +7°C° 0 mm 6 mps 696 mmHg 29%
    12:00 +9°C° 0 mm 5 mps 695 mmHg 27%
    13:00 +10°C° 0 mm 5 mps 695 mmHg 25%
    14:00 +10°C° 0 mm 5 mps 694 mmHg 25%
    15:00 +11°C° 0 mm 4 mps 694 mmHg 25%
    16:00 +11°C° 0 mm 4 mps 694 mmHg 25%
    17:00 +10°C° 0 mm 4 mps 694 mmHg 28%
    18:00 +8°C° 0 mm 4 mps 694 mmHg 31%
    19:00 +8°C° 0 mm 3 mps 694 mmHg 34%
    20:00 +8°C° 0 mm 3 mps 694 mmHg 35%
    21:00 +7°C° 0 mm 3 mps 694 mmHg 36%
    22:00 +7°C° 0 mm 3 mps 694 mmHg 37%
    23:00 +5°C° 0 mm 3 mps 694 mmHg 37%

    Day after tomorrow, 31 January, Friday

    Time Temperature Precipitation Wind Pressure Humidity
    00:00 +5°C° 0 mm 3 mps 694 mmHg 38%
    01:00 +5°C° 0 mm 3 mps 693 mmHg 39%
    02:00 +4°C° 0 mm 3 mps 693 mmHg 39%
    03:00 +4°C° 0 mm 3 mps 693 mmHg 39%
    04:00 +3°C° 0 mm 3 mps 693 mmHg 40%
    05:00 +4°C° 0 mm 2 mps 694 mmHg 40%
    06:00 +4°C° 0 mm 2 mps 694 mmHg 40%
    07:00 +4°C° 0 mm 2 mps 694 mmHg 40%
    08:00 +5°C° 0 mm 2 mps 695 mmHg 36%
    09:00 +8°C° 0 mm 1 mps 695 mmHg 31%
    10:00 +9°C° 0 mm 1 mps 696 mmHg 27%
    11:00 +10°C° 0 mm 1 mps 695 mmHg 25%
    12:00 +11°C° 0 mm 1 mps 695 mmHg 23%
    13:00 +11°C° 0 mm 0 mps 695 mmHg 22%
    14:00 +12°C° 0 mm 1 mps 694 mmHg 22%
    15:00 +12°C° 0 mm 1 mps 694 mmHg 23%
    16:00 +13°C° 0 mm 1 mps 694 mmHg 24%
    17:00 +12°C° 0 mm 1 mps 694 mmHg 28%
    18:00 +11°C° 0 mm 1 mps 694 mmHg 33%
    19:00 +9°C° 0 mm 0 mps 695 mmHg 38%
    20:00 +8°C° 0 mm 0 mps 695 mmHg 38%
    21:00 +8°C° 0 mm 0 mps 695 mmHg 39%
    22:00 +8°C° 0 mm 0 mps 695 mmHg 39%
    23:00 +8°C° 0 mm 1 mps 695 mmHg 37%

    1 February, Saturday

    Time Temperature Precipitation Wind Pressure Humidity
    00:00 +7°C° 0 mm 2 mps 695 mmHg 36%
    01:00 +7°C° 0 mm 2 mps 695 mmHg 35%
    02:00 +7°C° 0 mm 3 mps 695 mmHg 36%
    03:00 +5°C° 0 mm 4 mps 695 mmHg 38%
    04:00 +5°C° 0 mm 5 mps 694 mmHg 40%
    05:00 +3°C° 0 mm 5 mps 695 mmHg 42%
    06:00 +3°C° 0 mm 5 mps 695 mmHg 44%
    07:00 +2°C° 0 mm 5 mps 695 mmHg 46%
    08:00 +5°C° 0 mm 5 mps 696 mmHg 41%
    09:00 +6°C° 0 mm 5 mps 696 mmHg 37%
    10:00 +8°C° 0 mm 6 mps 697 mmHg 32%
    11:00 +9°C° 0 mm 6 mps 696 mmHg 30%
    12:00 +10°C° 0 mm 5 mps 696 mmHg 27%
    13:00 +12°C° 0 mm 5 mps 695 mmHg 25%
    14:00 +13°C° 0 mm 5 mps 695 mmHg 25%
    15:00 +13°C° 0 mm 5 mps 695 mmHg 24%
    16:00 +13°C° 0 mm 5 mps 695 mmHg 24%
    17:00 +12°C° 0 mm 5 mps 695 mmHg 28%
    18:00 +10°C° 0 mm 5 mps 695 mmHg 31%
    19:00 +8°C° 0 mm 5 mps 695 mmHg 34%
    20:00 +8°C° 0 mm 5 mps 695 mmHg 35%
    21:00 +7°C° 0 mm 5 mps 695 mmHg 36%
    22:00 +7°C° 0 mm 6 mps 695 mmHg 37%
    23:00 +5°C° 0 mm 6 mps 695 mmHg 38%

    2 February, Sunday

    Time Temperature Precipitation Wind Pressure Humidity
    00:00 +5°C° 0 mm 6 mps 695 mmHg 38%
    01:00 +4°C° 0 mm 6 mps 695 mmHg 39%
    02:00 +4°C° 0 mm 6 mps 695 mmHg 39%
    03:00 +4°C° 0 mm 6 mps 694 mmHg 40%
    04:00 +3°C° 0 mm 6 mps 694 mmHg 40%
    05:00 +3°C° 0 mm 6 mps 694 mmHg 40%
    06:00 +3°C° 0 mm 6 mps 695 mmHg 40%
    07:00 +3°C° 0 mm 6 mps 695 mmHg 40%
    08:00 +5°C° 0 mm 6 mps 695 mmHg 37%
    09:00 +6°C° 0 mm 7 mps 696 mmHg 34%
    10:00 +9°C° 0 mm 7 mps 696 mmHg 30%
    11:00 +11°C° 0 mm 7 mps 696 mmHg 30%
    12:00 +13°C° 0 mm 6 mps 696 mmHg 29%
    13:00 +15°C° 0 mm 6 mps 695 mmHg 28%
    14:00 +15°C° 0 mm 5 mps 695 mmHg 28%
    15:00 +15°C° 0 mm 5 mps 695 mmHg 28%
    16:00 +16°C° 0 mm 5 mps 695 mmHg 28%
    17:00 +14°C° 0 mm 5 mps 695 mmHg 31%
    18:00 +13°C° 0 mm 6 mps 695 mmHg 34%
    19:00 +10°C° 0 mm 6 mps 694 mmHg 37%
    20:00 +10°C° 0 mm 6 mps 694 mmHg 38%
    21:00 +9°C° 0 mm 6 mps 694 mmHg 39%
    22:00 +9°C° 0 mm 6 mps 694 mmHg 40%
    23:00 +8°C° 0 mm 6 mps 694 mmHg 41%

    3 February, Monday

    Time Temperature Precipitation Wind Pressure Humidity
    00:00 +8°C° 0 mm 6 mps 693 mmHg 41%
    01:00 +7°C° 0 mm 6 mps 693 mmHg 42%
    02:00 +7°C° 0 mm 6 mps 693 mmHg 42%
    03:00 +5°C° 0 mm 6 mps 693 mmHg 43%
    04:00 +5°C° 0 mm 6 mps 693 mmHg 43%
    05:00 +5°C° 0.1 mm 6 mps 693 mmHg 45%
    06:00 +5°C° 0.1 mm 6 mps 693 mmHg 46%
    07:00 +6°C° 0.1 mm 5 mps 693 mmHg 47%
    08:00 +7°C° 0.2 mm 5 mps 694 mmHg 46%
    09:00 +8°C° 0.2 mm 5 mps 694 mmHg 44%
    10:00 +9°C° 0.2 mm 6 mps 695 mmHg 42%
    11:00 +10°C° 0.2 mm 6 mps 694 mmHg 44%
    12:00 +10°C° 0.2 mm 6 mps 694 mmHg 46%
    13:00 +10°C° 0.2 mm 6 mps 694 mmHg 48%
    14:00 +10°C° 0.1 mm 5 mps 693 mmHg 54%
    15:00 +10°C° 0.1 mm 4 mps 693 mmHg 60%
    16:00 +10°C° 0.1 mm 4 mps 693 mmHg 66%
    17:00 +9°C° 0 mm 3 mps 693 mmHg 69%
    18:00 +8°C° 0 mm 3 mps 694 mmHg 73%
    19:00 +7°C° 0 mm 2 mps 694 mmHg 76%
    20:00 +7°C° 0 mm 2 mps 694 mmHg 77%
    21:00 +8°C° 0 mm 1 mps 695 mmHg 77%
    22:00 +7°C° 0 mm 1 mps 695 mmHg 78%
    23:00 +7°C° 0 mm 1 mps 695 mmHg 80%
    Show more